sat.trackr.live / text

‹ back to catalog

STARLINK-32205

NORAD 60266 · 2024-131M

PAYLOAD ACTIVE UNKNOWN

§ Identity

Operator
Country
US
Launch date
2024-07-27
Launch site
AFETR
Launch vehicle
Mass (kg)
RCS (m²)

Purposes: comms

External: N2YO · Heavens-Above · Gunter

§ Orbital elements

Epoch: 2026-09-21T07:18:06.616800Z

Period
94.01 min
Inclination
53.1604°
Eccentricity
0.0001557
Mean motion
15.31702663 rev/d
Perigee alt
469.7 km
Apogee alt
471.8 km
Semi-major
6,848.9 km
B*
1.9775e-5
RAAN
222.7311°
Arg perigee
81.4169°
Mean anomaly
278.7009°
Rev number
12,168

§ Raw data

STARLINK-322051 60266U 24131M   26264.30424325  .00000248  00000+0  19775-4 0  99902 60266  53.1604 222.7311 0001557  81.4169 278.7009 15.31702663121681

JSON: /api/v1/satellites/60266 · /tle

For live sub-satellite position, see the globe view (requires WebGL).

§ Visibility from observer

Set your observer location to see the next 7 days of passes ≥ 10°. The values pass through the URL so the page stays shareable.

No JS? Fill the form by hand. The geolocation button needs JavaScript.